Orbital Elements
Epoch 2010 Dec. 30.0 TT = JDT 2455560.5
T 2010 Dec. 18.31374 TT MPC
q 2.2425173 (2000.0) P Q
n 0.02687943 Peri. 294.47678 -0.48506166 -0.11204114
a 11.0371265 Node 252.36544 +0.07204914 -0.99350678
e 0.7968206 Incl. 65.51048 -0.87150680 -0.01977546
P 36.7
From 119 observations 2011 June 2-Sept. 13, mean residual 0".6.
|